Hourly Data Report for March 15, 2017

MIRAMICHI RCS
NEW BRUNSWICK

47°00'34.000" N
65°27'54.000" W
33.00 m
8100989
71744
ACQ

Download Data

Hourly Data (March 2017)
Hourly Data Report for March 15, 2017
TIME
LST
Temp Definition
°C
Dew Point Definition
°C
Rel Hum Definition
%
Precip. Amount Definition
mm

Wind Dir Definition
10's deg

Wind Spd Definition
km/h
Visibility Definition
km
Stn Press Definition
kPa
Hmdx Definition


Wind Chill Definition


Weather Definition


00:00 -3.4 -4.3 93 2.0 6 55   99.61   -13 LegendNANA
01:00 -2.9 -3.8 94 1.4 6 44   99.54   -12 LegendNANA
02:00 -2.6 -3.4 94 1.0 6 46   99.21   -11 LegendNANA
03:00 -2.2 -3.0 94 0.7 6 39   98.89   -10 LegendNANA
04:00 -1.4 -2.2 95 0.4 6 38   98.66   -9 LegendNANA
05:00 -0.5 -1.1 96 0.2 6 17   98.51   -5 LegendNANA
06:00 0.0 -0.5 97 0.0 7 8   98.50   -3 LegendNANA
07:00 0.2 -0.2 97 0.0 6 4   98.50     LegendNANA
08:00 0.2 -0.1 98 0.5 9 11   98.55     LegendNANA
09:00 1.6 0.5 92 0.0 18 10   98.59     LegendNANA
10:00 2.0 -0.2 85 0.0 19 23   98.61     LegendNANA
11:00 2.3 -0.6 81 0.0 20 25   98.65     LegendNANA
12:00 0.8 -0.4 92 0.5 24 17   98.70     LegendNANA
13:00 1.9 -1.4 79 0.0 20 27   98.75     LegendNANA
14:00 1.9 -2.0 76 0.0 19 25   98.78     LegendNANA
15:00 1.9 -2.4 73 0.0 20 20   98.74     LegendNANA
16:00 2.1 -2.8 70 0.0 20 20   98.74     LegendNANA
17:00 1.7 -2.3 74 0.0 20 16   98.80     LegendNANA
18:00 1.3 -3.1 73 0.0 20 20   98.84     LegendNANA
19:00 0.5 -2.6 80 0.0 20 11   98.83     LegendNANA
20:00 0.2 -2.6 81 0.0 20 5   98.78     LegendNANA
21:00 0.0 -2.8 82 0.0 16 5   98.77   -2 LegendNANA
22:00 -0.5 -2.2 89 0.0 17 6   98.73   -3 LegendNANA
23:00 -0.9 -2.6 88 0.0 22 7   98.67   -3 LegendNANA

Notes on Data Quality.

Legend

  • E = Estimated
  • M = Missing
  • NA = Not Available*
  • [empty] = Indicates an unobserved value
Date modified: